Find Starlink 34448

NORAD ID: 64291 Int'l Des: 2025-123 Owner: SPXS Country: US Constellation: starlink operational
LEOCIRCULAR

当前视图

正在加载3D地球...

About Starlink 34448

Starlink 34448 (NORAD 64291) is a starlink constellation satellite (v2 mini) launched Jun 8, 2025 by SPXS of US. It operates in LEO, CIRCULAR orbit with a mass of 575.00 kg.

即将过境

Passes for default location (London). Set your location on the main map for personalized predictions.

高度历史

Loading altitude history...

两行轨道根数

1 64291U 25123A 26261.87567004 .00015249 00000-0 53359-3 0 9998
2 64291 70.0003 65.0739 0003587 272.4514 87.6250 15.29593938 71833
Epoch: Sep 18, 2026 • Age: 53 hours

当前状态

高度 497.6 km
远地点 / 近地点 N/A
速度 7.62 km/s
星下点 -61.68°S, 14.07°W
发射日期 Jun 8, 2025
运行时间 1.2 years
类型 internet

技术详情

分类 Payload
质量 575.00 kg
干质量 530.00 kg
长度 0.30 m
跨度 29.00 m
形状 ? Box + pan
制造商 SPXS
平台类型 Starlink V2MO
阶段状态 In Orbit
所有者/国家 SPXS/US

Most Searched